KE6LRO Weather Reports


Display with metric or nautical units.
time (UTC)temp
F
wind
direction
speed
MPH
gust
MPH
rain 1hr
in
rain 24hr
in
rain mn
in
humidity
%
barometer
mb
20260903181203 59 346 1.0 5.0 0.00 0.02 0.02 70 1017.7
20260903180659 59 327 3.0 3.0 0.00 0.02 0.02 70 1017.3
20260903180157 58 314 2.0 2.0 0.00 0.02 0.02 71 1017.3
20260903175657 59 30 2.0 5.0 0.00 0.02 0.02 68 1017.3
20260903175151 58 47 1.0 2.0 0.00 0.02 0.02 69 1017.3
20260903174651 59 20 2.0 3.0 0.00 0.02 0.02 68 1017.4
20260903174146 59 30 0.0 3.0 0.00 0.02 0.02 68 1017.3
20260903173641 59 35 0.0 1.0 0.00 0.02 0.02 69 1017.6
20260903173137 60 10 3.0 3.0 0.00 0.02 0.02 65 1017.7
20260903172637 59 46 0.0 2.0 0.00 0.02 0.02 68 1017.6
20260903172132 60 8 4.0 6.0 0.00 0.02 0.02 68 1017.6
20260903171632 58 281 1.0 2.0 0.00 0.02 0.02 69 1017.3
20260903171128 57 326 5.0 7.0 0.00 0.02 0.02 72 1017.6
20260903170627 58 255 1.0 5.0 0.00 0.02 0.02 72 1017.8
20260903170123 57 312 3.0 3.0 0.00 0.02 0.02 83 1017.6
20260903165620 55 31 1.0 1.0 0.00 0.02 0.02 87 1017.4
20260903165115 55 19 0.0 0.0 0.00 0.02 0.02 91 1017.8
20260903164610 53 6 0.0 1.0 0.00 0.02 0.02 93 1017.8
20260903164106 53 11 0.0 2.0 0.00 0.02 0.02 95 1017.9
20260903163600 53 329 2.0 2.0 0.00 0.02 0.02 94 1017.8
20260903163056 53 319 2.0 2.0 0.00 0.02 0.02 95 1017.6
20260903162553 53 27 1.0 1.0 0.00 0.02 0.02 94 1017.9
20260903162048 53 47 0.0 0.0 0.00 0.02 0.02 94 1017.7
20260903161543 52 164 0.0 0.0 0.00 0.02 0.02 95 1017.9
20260903161039 51 180 0.0 0.0 0.00 0.02 0.02 96 1017.4
20260903160538 51 175 0.0 2.0 0.00 0.02 0.02 97 1017.7
20260903160033 50 155 0.0 1.0 0.00 0.02 0.02 98 1017.6
20260903155531 50 184 0.0 0.0 0.00 0.02 0.02 98 1017.6
20260903155027 50 173 0.0 1.0 0.00 0.02 0.02 98 1017.7
20260903154524 50 293 0.0 2.0 0.00 0.02 0.02 99 1017.7
20260903154020 50 222 0.0 1.0 0.00 0.02 0.02 99 1017.6
20260903153514 50 156 1.0 2.0 0.00 0.02 0.02 99 1017.6
20260903153011 50 170 0.0 1.0 0.00 0.02 0.02 99 1017.6
20260903152507 49 92 0.0 0.0 0.00 0.02 0.02 99 1017.3
20260903152003 48 112 0.0 1.0 0.00 0.02 0.02 99 1017.6
20260903151502 48 75 0.0 0.0 0.00 0.02 0.02 99 1017.4
20260903150957 47 172 0.0 0.0 0.00 0.02 0.02 99 1017.4
20260903150457 47 122 0.0 0.0 0.00 0.02 0.02 99 1017.7
20260903145951 46 131 0.0 0.0 0.00 0.02 0.02 99 1017.7
20260903145447 46 121 0.0 0.0 0.00 0.02 0.02 99 1017.7
20260903144942 46 96 0.0 0.0 0.00 0.02 0.02 99 1017.7
20260903144441 46 277 0.0 0.0 0.00 0.02 0.02 99 1017.8
20260903143937 46 260 1.0 1.0 0.00 0.02 0.02 99 1017.7
20260903143433 46 104 0.0 0.0 0.00 0.02 0.02 99 1017.8
20260903142929 46 124 0.0 0.0 0.00 0.02 0.02 99 1017.6
20260903142424 45 114 0.0 1.0 0.00 0.02 0.02 99 1017.4
20260903141920 45 106 0.0 0.0 0.00 0.02 0.02 99 1017.3
20260903141410 45 107 0.0 0.0 0.05 0.02 0.02 99 1017.6
20260903140906 45 107 0.0 0.0 0.05 0.02 0.02 99 1017.3
20260903140400 44 101 0.0 0.0 0.00 0.01 0.01 99 1017.2
20260903135856 44 101 0.0 0.0 0.07 0.01 0.01 99 1017.0
20260903135351 44 100 0.0 0.0 0.07 0.01 0.01 99 1017.2
20260903134850 44 99 0.0 0.0 0.00 0.00 0.00 99 1017.1
20260903134345 44 98 0.0 0.0 0.00 0.00 0.00 99 1016.9
20260903133843 44 100 0.0 0.0 0.00 0.00 0.00 99 1017.1
20260903133339 43 98 0.0 0.0 0.00 0.00 0.00 99 1016.8
20260903132833 43 97 0.0 0.0 0.00 0.00 0.00 99 1016.8
20260903132329 43 97 0.0 0.0 0.00 0.00 0.00 99 1016.3
20260903131824 43 99 0.0 0.0 0.00 0.00 0.00 99 1016.4
20260903131324 43 49 0.0 0.0 0.00 0.00 0.00 99 1016.3
20260903130823 43 347 0.0 0.0 0.00 0.00 0.00 99 1016.4
20260903130318 43 17 0.0 0.0 0.00 0.00 0.00 99 1016.2
20260903125817 43 22 0.0 0.0 0.00 0.00 0.00 99 1016.3
20260903125312 43 22 0.0 0.0 0.00 0.00 0.00 99 1016.2
20260903124811 43 24 0.0 0.0 0.00 0.00 0.00 99 1016.1
20260903124307 43 109 0.0 0.0 0.00 0.00 0.00 99 1016.1
20260903123805 43 109 0.0 0.0 0.00 0.00 0.00 99 1016.0
20260903123305 43 110 0.0 0.0 0.00 0.00 0.00 99 1015.9
20260903122803 43 110 0.0 0.0 0.00 0.00 0.00 99 1016.2
20260903122258 44 110 0.0 0.0 0.00 0.00 0.00 99 1015.9
20260903121756 43 110 0.0 0.0 0.00 0.00 0.00 99 1016.1
20260903121254 43 110 0.0 0.0 0.00 0.00 0.00 99 1016.0
20260903120749 43 110 0.0 0.0 0.00 0.00 0.00 99 1016.0
20260903120247 43 110 0.0 0.0 0.00 0.00 0.00 99 1016.0
20260903115746 43 110 0.0 0.0 0.00 0.00 0.00 99 1015.8
20260903115241 43 107 0.0 0.0 0.00 0.00 0.00 99 1015.9
20260903114735 43 108 0.0 1.0 0.00 0.00 0.00 99 1016.0
20260903114232 43 24 0.0 0.0 0.00 0.00 0.00 99 1016.1
20260903113726 43 24 0.0 0.0 0.00 0.00 0.00 99 1016.0
20260903113223 43 2 0.0 0.0 0.00 0.00 0.00 99 1016.1
20260903112713 43 319 0.0 0.0 0.00 0.00 0.00 99 1016.2
20260903112209 43 16 0.0 0.0 0.00 0.00 0.00 99 1016.0
20260903111707 43 80 0.0 1.0 0.00 0.00 0.00 99 1016.1
20260903111203 43 48 0.0 0.0 0.00 0.00 0.00 99 1016.0
20260903110659 43 91 0.0 0.0 0.00 0.00 0.00 99 1015.9
20260903110154 43 91 0.0 0.0 0.00 0.00 0.00 99 1016.0
20260903105654 43 91 0.0 0.0 0.00 0.00 0.00 99 1016.1
20260903105149 43 91 0.0 0.0 0.00 0.00 0.00 99 1016.1
20260903104648 43 91 0.0 0.0 0.00 0.00 0.00 99 1015.9
20260903104144 43 92 0.0 0.0 0.00 0.00 0.00 99 1015.9
20260903103640 43 29 0.0 0.0 0.00 0.00 0.00 99 1015.9
20260903103136 43 37 0.0 0.0 0.00 0.00 0.00 99 1015.9
20260903102631 43 37 0.0 0.0 0.00 0.00 0.00 99 1015.9
20260903102130 43 37 0.0 0.0 0.00 0.00 0.00 99 1016.0
20260903101629 43 39 0.0 0.0 0.00 0.00 0.00 99 1015.9
20260903101126 43 39 0.0 0.0 0.00 0.00 0.00 99 1016.0
20260903100625 43 32 0.0 0.0 0.00 0.00 0.00 99 1016.0
20260903100125 43 310 1.0 2.0 0.00 0.00 0.00 99 1016.2
20260903095622 42 59 0.0 0.0 0.00 0.00 0.00 99 1016.0
20260903095122 42 60 0.0 0.0 0.00 0.00 0.00 99 1016.0
20260903094617 42 85 0.0 0.0 0.00 0.00 0.00 99 1015.9
20260903094113 42 87 0.0 0.0 0.00 0.00 0.00 99 1016.0
20260903093608 42 87 0.0 0.0 0.00 0.00 0.00 99 1016.0
20260903093103 42 87 0.0 0.0 0.00 0.00 0.00 99 1015.8
20260903092602 42 92 0.0 0.0 0.00 0.00 0.00 99 1016.0
20260903092057 42 207 0.0 0.0 0.00 0.00 0.00 99 1015.9
20260903091555 42 121 0.0 0.0 0.00 0.00 0.00 99 1015.8
20260903091050 42 119 0.0 0.0 0.00 0.00 0.00 99 1016.0
20260903090546 42 120 0.0 0.0 0.00 0.00 0.00 99 1015.9
20260903090045 42 55 0.0 0.0 0.00 0.00 0.00 99 1015.9
20260903085543 42 332 0.0 0.0 0.00 0.00 0.00 99 1016.0
20260903085039 42 211 0.0 0.0 0.00 0.00 0.00 99 1015.9
20260903084537 42 102 0.0 0.0 0.00 0.00 0.00 99 1015.8
20260903084032 41 97 0.0 0.0 0.00 0.00 0.00 99 1016.1
20260903083528 41 91 0.0 0.0 0.00 0.00 0.00 99 1015.8
20260903083028 41 159 0.0 0.0 0.00 0.00 0.00 99 1016.0
20260903082522 41 249 0.0 0.0 0.00 0.00 0.00 99 1016.2
20260903082018 41 261 0.0 0.0 0.00 0.00 0.00 99 1016.1
20260903081513 41 90 0.0 0.0 0.00 0.00 0.00 99 1016.1
20260903081009 41 137 0.0 0.0 0.00 0.00 0.00 99 1016.0
20260903080504 41 80 0.0 0.0 0.00 0.00 0.00 99 1016.0
20260903080001 41 69 0.0 0.0 0.00 0.00 0.00 99 1016.0
20260903075456 41 70 0.0 0.0 0.00 0.00 0.00 99 1015.8
20260903074951 41 87 0.0 0.0 0.00 0.00 0.00 99 1015.7
20260903074450 41 337 0.0 0.0 0.00 0.00 0.00 99 1015.9
20260903073946 41 28 0.0 0.0 0.00 0.00 0.00 99 1015.6
20260903073441 41 335 0.0 0.0 0.00 0.00 0.00 99 1015.9
20260903072937 41 72 0.0 0.0 0.00 0.00 0.00 99 1015.7
20260903072432 40 42 0.0 0.0 0.00 0.00 0.00 99 1015.6
20260903071929 40 305 0.0 0.0 0.00 0.00 0.00 99 1015.7
20260903071424 40 305 0.0 0.0 0.00 0.00 0.00 99 1015.3
20260903070920 40 305 0.0 0.0 0.00 0.00 0.00 99 1015.8
20260903070420 40 304 0.0 0.0 0.00 0.00 0.00 99 1015.6
20260903065915 40 300 0.0 0.0 0.00 0.00 0.00 99 1015.7
20260903065415 40 301 0.0 0.0 0.00 0.00 0.00 99 1015.4
20260903064914 40 301 0.0 0.0 0.00 0.00 0.00 99 1015.4
20260903064409 41 301 0.0 0.0 0.00 0.00 0.00 99 1015.4
20260903063906 41 325 0.0 0.0 0.00 0.00 0.00 99 1015.4
20260903063401 41 323 0.0 0.0 0.00 0.00 0.00 99 1015.4
20260903062856 41 323 0.0 0.0 0.00 0.00 0.00 99 1015.4
20260903062356 41 323 0.0 0.0 0.00 0.00 0.00 99 1015.6
20260903061852 41 323 0.0 0.0 0.00 0.00 0.00 99 1015.7
20260903061351 41 323 0.0 0.0 0.00 0.00 0.00 99 1015.7
20260903060847 41 321 0.0 0.0 0.00 0.00 0.00 99 1015.6
20260903060346 41 1 0.0 0.0 0.00 0.00 0.00 99 1015.7
20260903055844 41 1 0.0 0.0 0.00 0.04 0.04 99 1015.7
20260903055343 42 1 0.0 0.0 0.00 0.04 0.04 99 1015.6
20260903054838 42 1 0.0 0.0 0.00 0.04 0.04 99 1015.6
20260903054338 42 0 0.0 0.0 0.00 0.04 0.04 99 1015.8
20260903053835 42 10 0.0 0.0 0.00 0.04 0.04 99 1015.7
20260903053329 42 10 0.0 0.0 0.00 0.04 0.04 99 1015.6
20260903052825 42 9 0.0 0.0 0.00 0.04 0.04 99 1015.7
20260903052320 43 9 0.0 0.0 0.00 0.04 0.04 99 1015.8
20260903051816 43 8 0.0 0.0 0.00 0.04 0.04 99 1015.7
20260903051311 42 11 0.0 0.0 0.00 0.04 0.04 99 1015.8
20260903050807 43 11 0.0 0.0 0.00 0.04 0.04 99 1015.9
20260903050306 43 11 0.0 0.0 0.00 0.04 0.04 99 1015.8
20260903045801 43 11 0.0 0.0 0.00 0.04 0.04 99 1015.8
20260903045257 43 9 0.0 0.0 0.00 0.04 0.04 99 1016.0
20260903044753 43 15 0.0 0.0 0.00 0.04 0.04 99 1016.1
20260903044248 43 15 0.0 0.0 0.00 0.04 0.04 99 1016.2
20260903043744 44 15 0.0 0.0 0.00 0.04 0.04 99 1015.9
20260903043244 44 15 0.0 0.0 0.00 0.04 0.04 99 1016.2
20260903042743 44 15 0.0 0.0 0.00 0.04 0.04 99 1016.0
20260903042239 44 15 0.0 0.0 0.00 0.04 0.04 99 1016.1
20260903041735 44 15 0.0 0.0 0.00 0.04 0.04 99 1016.1
20260903041231 44 15 0.0 0.0 0.00 0.04 0.04 99 1016.1
20260903040731 44 15 0.0 0.0 0.00 0.04 0.04 98 1016.3
20260903040225 45 15 0.0 0.0 0.00 0.04 0.04 98 1016.1
20260903035721 45 15 0.0 0.0 0.00 0.04 0.04 98 1016.2
20260903035217 45 15 0.0 0.0 0.00 0.04 0.04 98 1016.0
20260903034716 46 15 0.0 0.0 0.00 0.04 0.04 98 1016.3
20260903034212 46 15 0.0 0.0 0.00 0.04 0.04 98 1016.0
20260903033708 46 15 0.0 0.0 0.00 0.04 0.04 98 1016.2
20260903033208 46 15 0.0 0.0 0.00 0.04 0.04 98 1016.2
20260903032702 46 15 0.0 0.0 0.00 0.04 0.04 97 1016.1
20260903032158 47 15 0.0 0.0 0.00 0.04 0.04 97 1015.9
20260903031654 47 15 0.0 0.0 0.00 0.04 0.04 97 1016.0
20260903031153 47 15 0.0 0.0 0.00 0.04 0.04 97 1015.9
20260903030649 48 14 0.0 0.0 0.00 0.04 0.04 97 1015.9
20260903030145 48 14 0.0 0.0 0.00 0.04 0.04 96 1015.9
20260903025640 48 14 0.0 0.0 0.00 0.04 0.04 95 1015.8
20260903025136 49 14 0.0 0.0 0.00 0.04 0.04 94 1016.0
20260903024631 49 14 0.0 0.0 0.00 0.04 0.04 94 1015.8
20260903024130 50 14 0.0 0.0 0.00 0.04 0.04 94 1015.7
20260903023626 50 14 0.0 0.0 0.00 0.04 0.04 93 1015.8
20260903023125 51 14 0.0 0.0 0.00 0.04 0.04 92 1015.8
20260903022621 51 12 0.0 0.0 0.00 0.04 0.04 92 1015.9
20260903022120 52 12 0.0 0.0 0.00 0.04 0.04 90 1015.8
20260903021619 53 13 0.0 0.0 0.00 0.04 0.04 87 1015.6
20260903021114 53 13 0.0 0.0 0.00 0.04 0.04 86 1015.9
20260903020610 53 10 0.0 0.0 0.00 0.04 0.04 86 1015.7
20260903020110 54 2 0.0 0.0 0.00 0.04 0.04 86 1015.6
20260903015605 55 335 0.0 0.0 0.00 0.04 0.04 84 1015.6
20260903015101 55 283 1.0 2.0 0.00 0.04 0.04 81 1015.7
20260903014600 55 1 1.0 2.0 0.00 0.04 0.04 80 1015.7
20260903014100 56 335 1.0 2.0 0.00 0.04 0.04 81 1015.7
20260903013555 56 323 3.0 3.0 0.00 0.04 0.04 79 1015.8
20260903013050 56 305 1.0 2.0 0.00 0.04 0.04 80 1015.6
20260903012549 56 295 1.0 3.0 0.00 0.04 0.04 79 1015.4
20260903012048 56 332 1.0 1.0 0.00 0.04 0.04 79 1015.6
20260903011549 56 291 1.0 1.0 0.00 0.04 0.04 80 1015.4
20260903011048 56 303 2.0 2.0 0.00 0.04 0.04 79 1015.6
20260903010544 56 307 1.0 1.0 0.00 0.04 0.04 79 1015.9
20260903010042 57 314 1.0 2.0 0.00 0.04 0.04 79 1015.8
20260903005537 58 317 2.0 2.0 0.00 0.04 0.04 75 1015.8
20260903005033 57 354 0.0 1.0 0.00 0.04 0.04 76 1015.9
20260903004533 57 352 1.0 1.0 0.00 0.04 0.04 74 1015.9
20260903004028 57 329 0.0 2.0 0.00 0.04 0.04 74 1016.0
20260903003523 58 317 2.0 6.0 0.00 0.04 0.04 72 1016.0
20260903003019 58 311 3.0 3.0 0.00 0.04 0.04 71 1016.1
20260903002518 58 300 1.0 6.0 0.00 0.04 0.04 73 1016.0
20260903002013 58 321 2.0 3.0 0.00 0.04 0.04 71 1016.0
20260903001508 58 327 4.0 5.0 0.00 0.04 0.04 71 1015.9
20260903001007 59 304 1.0 2.0 0.00 0.04 0.04 74 1016.2
20260903000503 60 325 1.0 1.0 0.00 0.04 0.04 73 1016.2
20260903000000 61 314 1.0 2.0 0.00 0.04 0.04 66 1016.1
20260902235455 62 306 1.0 2.0 0.00 0.04 0.04 64 1016.2
20260902234950 62 285 1.0 2.0 0.00 0.04 0.04 60 1016.3
20260902234445 62 272 0.0 1.0 0.00 0.04 0.04 62 1016.2
20260902233944 61 275 2.0 2.0 0.00 0.04 0.04 62 1016.2
20260902233438 61 258 0.0 3.0 0.00 0.04 0.04 62 1016.2
20260902232938 61 138 1.0 1.0 0.00 0.04 0.04 65 1016.3
20260902232433 61 218 2.0 3.0 0.00 0.04 0.04 65 1016.3
20260902231933 60 263 1.0 2.0 0.00 0.04 0.04 65 1016.4
20260902231427 59 239 2.0 2.0 0.00 0.04 0.04 67 1016.3
20260902230922 59 273 2.0 3.0 0.00 0.04 0.04 69 1016.2
20260902230421 59 218 2.0 2.0 0.00 0.04 0.04 71 1016.4
20260902225916 58 173 2.0 3.0 0.00 0.04 0.04 71 1016.7
20260902225411 57 67 0.0 1.0 0.00 0.04 0.04 74 1016.8
20260902224910 57 273 1.0 2.0 0.00 0.04 0.04 76 1016.9
20260902224410 56 172 2.0 2.0 0.00 0.04 0.04 76 1017.0
20260902223907 57 196 2.0 3.0 0.00 0.04 0.04 78 1017.0
20260902223407 56 239 1.0 2.0 0.00 0.04 0.04 78 1016.9
20260902222901 56 256 0.0 2.0 0.00 0.04 0.04 80 1017.2
20260902222359 56 246 2.0 3.0 0.00 0.04 0.04 81 1017.3
20260902221859 55 181 0.0 2.0 0.00 0.04 0.04 81 1017.6
20260902221359 55 246 1.0 3.0 0.00 0.04 0.04 81 1017.6
20260902220854 55 219 2.0 2.0 0.00 0.04 0.04 81 1017.3
20260902220354 55 140 1.0 2.0 0.00 0.04 0.04 83 1017.3
20260902215850 55 237 1.0 2.0 0.00 0.04 0.04 85 1017.7
20260902215350 54 268 2.0 5.0 0.00 0.04 0.04 84 1017.2
20260902214846 54 215 1.0 3.0 0.00 0.04 0.04 86 1017.2
20260902214345 54 238 1.0 3.0 0.00 0.04 0.04 86 1017.4
20260902213839 54 239 0.0 2.0 0.00 0.04 0.04 86 1017.2
20260902213336 54 69 0.0 0.0 0.00 0.04 0.04 82 1017.2
20260902212834 54 92 0.0 0.0 0.00 0.04 0.04 85 1017.0
20260902212331 54 148 1.0 1.0 0.00 0.04 0.04 83 1017.1
20260902211827 53 62 0.0 0.0 0.00 0.04 0.04 86 1016.8
20260902211322 53 44 0.0 0.0 0.00 0.04 0.04 89 1016.8
20260902210818 53 43 0.0 1.0 0.00 0.04 0.04 91 1016.9
20260902210317 53 50 0.0 1.0 0.00 0.04 0.04 91 1017.0
20260902205815 53 104 0.0 2.0 0.00 0.04 0.04 92 1017.2
20260902205316 52 82 0.0 1.0 0.00 0.04 0.04 93 1017.3
20260902204811 52 163 0.0 2.0 0.00 0.04 0.04 92 1017.8
20260902204306 52 217 0.0 1.0 0.00 0.04 0.04 95 1018.1
20260902203801 52 181 0.0 0.0 0.00 0.04 0.04 96 1018.1
20260902203256 52 129 0.0 1.0 0.00 0.04 0.04 96 1018.2
20260902202751 52 44 0.0 0.0 0.00 0.04 0.04 95 1018.1
20260902202248 52 44 0.0 0.0 0.00 0.04 0.04 95 1018.5
20260902201744 51 44 1.0 2.0 0.00 0.04 0.04 94 1018.3
20260902201243 51 81 0.0 1.0 0.00 0.04 0.04 94 1018.1
20260902200738 51 188 0.0 0.0 0.00 0.04 0.04 94 1018.3
20260902200234 51 256 1.0 2.0 0.00 0.04 0.04 94 1018.5
20260902195729 52 119 0.0 2.0 0.00 0.04 0.04 91 1018.1
20260902195228 51 178 4.0 5.0 0.00 0.04 0.04 92 1018.3
20260902194728 51 203 1.0 2.0 0.05 0.04 0.04 93 1018.5
20260902194223 51 70 0.0 1.0 0.05 0.04 0.04 92 1018.2
20260902193719 52 86 0.0 2.0 0.07 0.03 0.03 93 1018.5
20260902193214 53 35 0.0 3.0 0.07 0.03 0.03 92 1018.7
20260902192712 53 250 2.0 2.0 0.05 0.02 0.02 90 1019.2
20260902192206 54 63 0.0 1.0 0.00 0.01 0.01 84 1019.5
20260902191701 54 60 0.0 1.0 0.00 0.01 0.01 79 1018.8
20260902191201 55 177 1.0 2.0 0.00 0.01 0.01 79 1018.9
20260902190656 54 168 3.0 10.0 0.00 0.01 0.01 83 1018.9
20260902190151 54 122 3.0 5.0 0.00 0.01 0.01 83 1018.5
20260902185647 54 130 1.0 3.0 0.07 0.01 0.01 81 1018.2
20260902185143 55 135 3.0 5.0 0.00 0.00 0.00 79 1018.3
20260902184643 57 194 2.0 3.0 0.00 0.00 0.00 76 1018.1
20260902184139 57 65 1.0 7.0 0.00 0.00 0.00 70 1017.6
20260902183635 58 159 3.0 3.0 0.00 0.00 0.00 75 1018.2
20260902183131 58 232 2.0 2.0 0.00 0.00 0.00 71 1018.0
20260902182627 59 175 6.0 7.0 0.00 0.00 0.00 70 1017.8
20260902182123 59 190 1.0 2.0 0.00 0.00 0.00 72 1017.6
20260902181619 59 202 1.0 2.0 0.00 0.00 0.00 70 1017.1